Regional Weather Roundup
Issued by NWS

Home | Current Version | Previous Version | Text Only | Print | Product List | Glossary Off
Versions: 1 2 3 4 5 6 7 8 9 10 11 12 13 14 15 16 17 18 19 20 21 22 23 24 25 26 27 28 29 30 31 32 33 34 35 36 37 38 39 40 41 42 43 44 45 46 47 48 49 50

000
ASUS43 KFSD 231010
RWRSD

WEATHER ROUNDUP FOR SOUTH DAKOTA
NATIONAL WEATHER SERVICE SIOUX FALLS SD
500 AM CDT THU OCT 23 2014

NOTE: "FAIR" INDICATES FEW OR NO CLOUDS BELOW 12,000 FEET WITH NO
SIGNIFICANT WEATHER AND/OR OBSTRUCTIONS TO VISIBILITY.


SDZ001>005-009-010-012>017-231100-
NORTHWEST AND NORTH CENTRAL SOUTH DAKOTA

CITY           SKY/WX    TMP DP  RH WIND       PRES   REMARKS
BUFFALO          N/A     40  28  62 W8        29.88F
FAITH            N/A     41  30  65 SW13      29.95F
MOBRIDGE       CLEAR     37  32  82 E5        29.92F
$$

SDZ012>016-024>037-041>051-057-063-072>074-231100-
SOUTHWEST AND SOUTH CENTRAL SOUTH DAKOTA

CITY           SKY/WX    TMP DP  RH WIND       PRES   REMARKS
RAPID CTY ARPT CLEAR     35  27  72 CALM      29.98F
PIERRE         CLEAR     45  34  65 SW6       29.96F
CUSTER         CLEAR     35  21  56 W5        30.06F
ELLSWORTH AFB  CLEAR     42  27  55 SW3       29.97F
PHILIP         CLEAR     32  29  88 CALM      29.98F
PINE RIDGE     CLEAR     28  25  88 CALM      30.03F
SPEARFISH      FAIR      43  23  45 W5        29.99F
WINNER         FAIR      50  41  71 SW10      30.00F
$$

SDZ004>011-016>023-039-040-231100-
NORTHEAST SOUTH DAKOTA

CITY           SKY/WX    TMP DP  RH WIND       PRES   REMARKS
ABERDEEN       CLEAR     36  34  92 S9        29.95S
WATERTOWN      PTCLDY    40  39  97 SE6       29.96F FOG
SISSETON         N/A     49  42  77 W12       29.92S
$$

SDZ017-020-022-023-036>040-048>070-231100-
SOUTHEAST SOUTH DAKOTA

CITY           SKY/WX    TMP DP  RH WIND       PRES   REMARKS
SIOUX FALLS    FOG       45  45 100 CALM      30.01S VSB 1/16
HURON          CLEAR     39  38  96 CALM      29.98R
CHAMBERLAIN    CLEAR     38  35  91 CALM      30.00S
MITCHELL       CLEAR     46  43  89 SW6       30.00S
YANKTON        MOCLDY    43  41  93 CALM      30.03S VSB 1/4
$$

ABBREVIATIONS USED IN REMARKS
   TC - TEMPERATURE IN CELSIUS
  WCI - WIND CHILL INDEX
   HX - HEAT INDEX
  VSB - VISIBILITY




USA.gov is the U.S. government's official web portal to all federal, state and local government web resources and services.